KG5VSR Weather Reports


time (UTC)temp
C
wind
direction
speed
KPH
gust
KPH
rain 1hr
cm
rain 24hr
cm
rain mn
cm
humidity
%
barometer
mb
20260505225131 31 204 6.4 9.7 0.00 0.00 0.00 69 1003.9
20260505222128 31 151 4.8 8.0 0.00 0.00 0.00 66 1003.7
20260505215125 32 186 4.8 4.8 0.00 0.00 0.00 65 1004.0
20260505212124 32 163 4.8 9.7 0.00 0.00 0.00 62 1004.2
20260505205125 33 154 3.2 8.0 0.00 0.00 0.00 57 1004.6
20260505202122 32 146 1.6 3.2 0.00 0.00 0.00 60 1004.9
20260505195123 31 289 3.2 3.2 0.00 0.00 0.00 65 1005.3
20260505192123 30 182 3.2 4.8 0.00 0.00 0.00 70 1005.1
20260505185120 30 199 3.2 3.2 0.00 0.00 0.00 72 1005.5
20260505182118 28 109 8.0 11.3 0.00 0.00 0.00 74 1005.7
20260505175115 28 134 4.8 4.8 0.00 0.00 0.00 73 1006.0
20260505172114 28 195 8.0 9.7 0.00 0.00 0.00 74 1005.9
20260505165114 26 180 3.2 4.8 0.00 0.00 0.00 77 1005.9
20260505162109 27 123 4.8 9.7 0.00 0.00 0.00 75 1005.8
20260505152104 25 200 4.8 4.8 0.00 0.00 0.00 80 1006.0
20260505122050 21 171 14.5 20.9 0.00 0.00 0.00 90 1004.7
20260505115045 21 198 1.6 1.6 0.00 0.00 0.00 90 1004.9
20260505112044 21 187 4.8 4.8 0.00 0.00 0.00 90 1004.6
20260505102039 21 158 3.2 8.0 0.00 0.00 0.00 89 1004.6
20260505095037 22 189 6.4 9.7 0.00 0.00 0.00 88 1004.9
20260505092037 21 169 4.8 8.0 0.00 0.00 0.00 89 1005.1
20260505085033 21 188 6.4 11.3 0.00 0.00 0.00 89 1005.2
20260505082033 21 173 8.0 11.3 0.00 0.00 0.00 89 1005.5
20260505075030 21 276 4.8 4.8 0.00 0.00 0.00 89 1005.6
20260505072029 21 182 8.0 11.3 0.00 0.00 0.00 87 1006.1
20260505065025 22 211 6.4 8.0 0.00 0.00 0.00 86 1006.1
20260505062025 22 174 12.9 17.7 0.00 0.00 0.00 84 1006.5
20260505055024 22 211 3.2 3.2 0.00 0.00 0.00 83 1006.6
20260505052019 22 184 3.2 3.2 0.00 0.00 0.00 81 1006.7
20260505035010 23 215 1.6 3.2 0.00 0.00 0.00 77 1006.9
20260505032010 23 165 3.2 4.8 0.00 0.00 0.00 77 1007.0
20260505025009 23 195 3.2 3.2 0.00 0.00 0.00 75 1007.1
20260505022010 23 155 3.2 4.8 0.00 0.00 0.00 74 1006.8
20260505015006 24 168 3.2 4.8 0.00 0.00 0.00 73 1006.9
20260505012000 24 169 9.7 14.5 0.00 0.00 0.00 72 1006.8
20260505004957 25 163 6.4 11.3 0.00 0.00 0.00 70 1006.9
20260505001956 25 183 6.4 9.7 0.00 0.00 0.00 69 1006.9
20260504234956 25 186 9.7 14.5 0.00 0.00 0.00 67 1007.1
20260504231954 26 202 3.2 3.2 0.00 0.00 0.00 66 1007.3